TimeEDT,TemperatureF,Dew PointF,Humidity,Sea Level PressureIn,VisibilityMPH,Wind Direction,Wind SpeedMPH,Gust SpeedMPH,PrecipitationIn,Events,Conditions,WindDirDegrees,DateUTC
12:58 AM,78.1,72.5,83,30.28,10.0,SW,2.3,-,N/A,,Clear,220,2013-07-16 04:58:00
1:58 AM,77.4,72.3,84,30.27,10.0,SSW,3.5,-,N/A,,Clear,210,2013-07-16 05:58:00
2:58 AM,76.3,72.5,88,30.27,10.0,SW,2.3,-,N/A,,Clear,230,2013-07-16 06:58:00
3:58 AM,75.7,74.1,95,30.26,10.0,WSW,3.5,-,N/A,,Clear,240,2013-07-16 07:58:00
4:58 AM,75.0,74.5,98,30.26,10.0,West,3.5,-,N/A,,Clear,260,2013-07-16 08:58:00
5:58 AM,74.1,73.8,99,30.27,10.0,Calm,Calm,-,N/A,,Clear,0,2013-07-16 09:58:00
6:58 AM,74.5,74.3,99,30.28,10.0,West,2.3,-,N/A,,Clear,260,2013-07-16 10:58:00
7:58 AM,78.8,75.9,91,30.28,10.0,WNW,5.8,-,N/A,,Clear,300,2013-07-16 11:58:00
8:07 AM,78.8,75.2,89,30.29,10.0,WNW,5.8,-,N/A,Rain,Light Rain,290,2013-07-16 12:07:00
8:24 AM,80.6,77.0,89,30.29,10.0,WNW,6.9,-,N/A,,Clear,290,2013-07-16 12:24:00
8:58 AM,82.2,75.6,80,30.30,10.0,NW,6.9,-,0.00,,Clear,310,2013-07-16 12:58:00
9:58 AM,85.3,75.0,71,30.30,10.0,WNW,4.6,-,N/A,,Clear,290,2013-07-16 13:58:00
10:58 AM,86.9,72.9,63,30.28,10.0,Variable,4.6,-,N/A,,Clear,0,2013-07-16 14:58:00
11:58 AM,88.2,72.5,60,30.27,10.0,NNW,5.8,-,N/A,,Clear,340,2013-07-16 15:58:00
12:58 PM,89.6,72.0,56,30.25,10.0,Variable,6.9,-,N/A,,Clear,0,2013-07-16 16:58:00
1:58 PM,90.5,70.9,52,30.24,10.0,NW,5.8,-,N/A,,Clear,310,2013-07-16 17:58:00
2:58 PM,91.6,70.2,49,30.22,10.0,ENE,3.5,-,N/A,,Clear,70,2013-07-16 18:58:00
3:58 PM,91.8,71.2,51,30.21,10.0,North,4.6,-,N/A,,Partly Cloudy,360,2013-07-16 19:58:00
4:58 PM,92.7,70.9,49,30.20,10.0,NE,6.9,-,N/A,,Partly Cloudy,50,2013-07-16 20:58:00
5:58 PM,92.1,70.5,49,30.19,10.0,ENE,3.5,-,N/A,,Clear,60,2013-07-16 21:58:00
6:58 PM,91.8,70.5,50,30.19,10.0,NNE,2.3,-,N/A,,Clear,30,2013-07-16 22:58:00
7:58 PM,89.1,73.2,59,30.18,10.0,North,3.5,-,N/A,,Clear,360,2013-07-16 23:58:00
8:58 PM,86.0,76.1,72,30.20,10.0,SE,1.2,-,N/A,,Clear,130,2013-07-17 00:58:00
9:58 PM,82.9,75.4,78,30.22,10.0,North,4.6,-,N/A,,Clear,10,2013-07-17 01:58:00
10:58 PM,82.6,74.1,75,30.22,10.0,Calm,Calm,-,N/A,,Clear,0,2013-07-17 02:58:00
11:58 PM,80.6,75.7,85,30.21,10.0,Calm,Calm,-,N/A,,Clear,0,2013-07-17 03:58:00